Overview Statistics Trail Chart Weather Telemetry Raw packets
 

This is the latest recevied weather packets stored in our database for station/object YO8SHU-10. If no packets are shown the sender has not sent any weather packets the latest 10 day(s).

<< 13 14 15 16 17 18 19 >>
Time Temp. Humidity Pressure Rain* Wind** Luminosity Snow
1787967017 12.78° C 100% 1027.2 hPa - - - -
1787965217 12.78° C 100% 1027.4 hPa - - - -
1787963417 13.33° C 100% 1027.4 hPa - - - -
1787961623 13.33° C 100% 1027.4 hPa - - - -
1787959817 13.89° C 100% 1027.5 hPa - - - -
1787958017 13.89° C 100% 1027.8 hPa - - - -
1787956217 13.89° C 100% 1027.9 hPa - - - -
1787954418 14.44° C 100% 1027.7 hPa - - - -
1787952616 15° C 100% 1027.9 hPa - - - -
1787950816 15.56° C 100% 1028 hPa - - - -
1787949016 15.56° C 100% 1027.9 hPa - - - -
1787947216 16.67° C 100% 1028.1 hPa - - - -
1787945416 17.22° C 100% 1028.2 hPa - - - -
1787943616 17.78° C 100% 1028.1 hPa - - - -
1787941816 18.33° C 100% 1028.3 hPa - - - -
1787940016 18.89° C 100% 1028.2 hPa - - - -
1787938215 20° C 100% 1027.8 hPa - - - -
1787936415 20.56° C 100% 1027.5 hPa - - - -
1787934615 24.44° C 80% 1027.2 hPa - - - -
1787932815 22.78° C 80% 1027.1 hPa - - - -
1787931021 23.33° C 77% 1027.4 hPa - - - -
1787929215 23.33° C 74% 1027.3 hPa - - - -
1787927415 23.89° C 72% 1027.2 hPa - - - -
1787925615 24.44° C 71% 1027.1 hPa - - - -
1787923815 24.44° C 69% 1027.1 hPa - - - -

* Rain since midnight (hover to see other rain measurements)
** Current wind speed in m/s (hover to see current wind gust speed)